Location: Cabeza de los Veneras
(40.2000°N, 5.2000°W)
Time: 11:56:13
(UTC+00:00)

Atlas Centaur 2 - Pass Details

Date: 18 April 2024
Orbit: 458 x 1278 km, 30.4° (Epoch: 26 May)

Event Time Altitude Azimuth Distance (km) Brightness Sun altitude
Rises 21:14:47 0° 247° (WSW) 3,261 5.6 -23.1°
Reaches altitude 10° 21:17:54 10° 234° (SW) 2,171 4.5 -23.5°
Enters shadow 21:20:03 19° 213° (SSW) 1,555 3.5 -23.8°
